Location: Steilacoom
(47.1700°N, 122.5700°W)
Time: 09:26:50
(UTC-08:00)

ISS - Pass Details

Date: 23 November 2019
Orbit: 411 x 421 km, 51.6° (Epoch: 13 December)

Event Time Altitude Azimuth Distance (km) Brightness Sun altitude
Rises 17:53:46 0° 215° (SW) 2,344 0.9 -14.4°
Reaches altitude 10° 17:56:00 10° 204° (SSW) 1,487 -0.4 -14.7°
Maximum altitude 17:58:57 29° 142° (SE) 787 -2.6 -15.2°
Enters shadow 17:59:40 27° 117° (ESE) 847 -2.6 -15.3°
